FHA12E EDDN-LIRN

Flight info

Callsign FHA12E
Flight time 1h 23m
Altitude 37000
Route BOLSI1C/10 BOLSI Y167 AKANU L603 OLETU Z106 MANAL M736 LIZUM N503 LIKDA DCT BAKOR DCT GOTMO DCT EVULI DCT ERIKA ERIKA1A
Aircraft A320/M-SDE3FGHIRWY/LB1

Departure

Time 2026-04-29 17:22
Airport Nuremberg Airport (EDDN)

Arrival

Time 2026-04-29 18:45
Airport Naples International Airport (LIRN)
Time Latitude Longitude Altitude Speed Heading
2026-04-29 16:48 49.49542 11.07516 1024 ft 0 kts 188°
2026-04-29 17:13 49.49572 11.07524 1025 ft 2 kts 188°
2026-04-29 17:13 49.49593 11.07531 1025 ft 4 kts 216°
2026-04-29 17:13 49.49605 11.07561 1024 ft 4 kts 272°
2026-04-29 17:13 49.49605 11.07575 1024 ft 0 kts 278°
2026-04-29 17:16 49.49605 11.07572 1024 ft 1 kts 278°
2026-04-29 17:16 49.49611 11.07513 1022 ft 9 kts 278°
2026-04-29 17:17 49.49621 11.07408 1025 ft 11 kts 278°
2026-04-29 17:17 49.49636 11.07258 1025 ft 10 kts 281°
2026-04-29 17:17 49.49700 11.07232 1023 ft 11 kts 358°
2026-04-29 17:17 49.49742 11.07133 1021 ft 13 kts 279°
2026-04-29 17:18 49.49753 11.07034 1021 ft 15 kts 279°
2026-04-29 17:18 49.49769 11.06877 1020 ft 14 kts 279°
2026-04-29 17:18 49.49785 11.06720 1020 ft 16 kts 278°
2026-04-29 17:18 49.49800 11.06553 1020 ft 15 kts 278°
2026-04-29 17:19 49.49818 11.06380 1018 ft 18 kts 278°
2026-04-29 17:19 49.49834 11.06212 1019 ft 16 kts 278°
2026-04-29 17:19 49.49864 11.06008 1021 ft 14 kts 306°
2026-04-29 17:19 49.49944 11.05943 1024 ft 13 kts 339°
2026-04-29 17:20 49.50000 11.05928 1027 ft 11 kts
2026-04-29 17:20 49.50047 11.06005 1028 ft 12 kts 86°
2026-04-29 17:20 49.50044 11.06044 1025 ft 0 kts 99°
2026-04-29 17:21 49.50043 11.06046 1025 ft 2 kts 99°
2026-04-29 17:21 49.50022 11.06265 1025 ft 54 kts 98°
2026-04-29 17:21 49.49935 11.07152 1024 ft 111 kts 98°
2026-04-29 17:22 49.49799 11.08554 1110 ft 145 kts 95°
2026-04-29 17:22 49.49651 11.10027 1684 ft 138 kts 96°
2026-04-29 17:22 49.49497 11.11493 2213 ft 140 kts 95°
2026-04-29 17:22 49.49352 11.12955 2675 ft 141 kts 95°
2026-04-29 17:23 49.49199 11.14521 2910 ft 158 kts 95°
2026-04-29 17:23 49.49024 11.16346 2982 ft 187 kts 96°
2026-04-29 17:23 49.48822 11.18430 3307 ft 206 kts 96°
2026-04-29 17:23 49.48599 11.20720 3717 ft 225 kts 96°
2026-04-29 17:24 49.48239 11.23176 4210 ft 246 kts 114°
2026-04-29 17:24 49.47110 11.25027 4978 ft 259 kts 148°
2026-04-29 17:24 49.45327 11.25732 5786 ft 273 kts 174°
2026-04-29 17:24 49.43486 11.25620 6563 ft 280 kts 184°
2026-04-29 17:25 49.41504 11.25179 7349 ft 286 kts 187°
2026-04-29 17:25 49.39522 11.24685 8121 ft 290 kts 187°
2026-04-29 17:25 49.37513 11.24246 8889 ft 294 kts 183°
2026-04-29 17:25 49.35474 11.24451 9569 ft 296 kts 163°
2026-04-29 17:26 49.33465 11.25251 10296 ft 301 kts 162°
2026-04-29 17:26 49.31404 11.26101 10691 ft 317 kts 162°
2026-04-29 17:26 49.29252 11.27004 10846 ft 340 kts 163°
2026-04-29 17:26 49.26919 11.27980 11191 ft 353 kts 163°
2026-04-29 17:27 49.24528 11.28972 11804 ft 358 kts 163°
2026-04-29 17:27 49.22142 11.29957 12405 ft 363 kts 163°
2026-04-29 17:27 49.19687 11.30966 13019 ft 367 kts 163°
2026-04-29 17:27 49.17207 11.31982 13669 ft 371 kts 164°
2026-04-29 17:28 49.14773 11.32977 14267 ft 375 kts 164°
2026-04-29 17:28 49.12336 11.33975 14778 ft 379 kts 164°
2026-04-29 17:28 49.09824 11.35007 15339 ft 383 kts 163°
2026-04-29 17:28 49.07246 11.36068 15890 ft 386 kts 163°
2026-04-29 17:29 49.04642 11.37142 16418 ft 389 kts 163°
2026-04-29 17:29 49.02014 11.38225 16959 ft 393 kts 163°
2026-04-29 17:29 48.99361 11.39312 17501 ft 397 kts 163°
2026-04-29 17:29 48.96731 11.40381 18047 ft 400 kts 163°
2026-04-29 17:30 48.94195 11.41410 18564 ft 403 kts 163°
2026-04-29 17:30 48.91476 11.42514 19076 ft 406 kts 163°
2026-04-29 17:30 48.88735 11.43626 19607 ft 409 kts 163°
2026-04-29 17:30 48.86005 11.44736 20146 ft 412 kts 163°
2026-04-29 17:31 48.83225 11.45872 20678 ft 415 kts 163°
2026-04-29 17:31 48.80422 11.47012 21193 ft 419 kts 163°
2026-04-29 17:31 48.77612 11.48150 21693 ft 422 kts 163°
2026-04-29 17:31 48.74864 11.49260 22152 ft 425 kts 163°
2026-04-29 17:32 48.72148 11.50356 22589 ft 427 kts 164°
2026-04-29 17:32 48.69270 11.51519 23062 ft 430 kts 164°
2026-04-29 17:32 48.66368 11.52687 23520 ft 433 kts 164°
2026-04-29 17:32 48.63447 11.53858 23943 ft 436 kts 164°
2026-04-29 17:33 48.60507 11.55036 24327 ft 438 kts 164°
2026-04-29 17:33 48.58176 11.55973 24613 ft 440 kts 164°
2026-04-29 17:33 48.55185 11.57177 24989 ft 443 kts 164°
2026-04-29 17:33 48.52200 11.58379 25347 ft 445 kts 164°
2026-04-29 17:34 48.49204 11.59582 25677 ft 447 kts 164°
2026-04-29 17:34 48.46299 11.60740 26001 ft 449 kts 165°
2026-04-29 17:34 48.43254 11.61879 26342 ft 452 kts 166°
2026-04-29 17:34 48.40338 11.62889 26661 ft 454 kts 167°
2026-04-29 17:35 48.35190 11.64578 27224 ft 458 kts 168°
2026-04-29 17:35 48.31063 11.65932 27672 ft 460 kts 167°
2026-04-29 17:35 48.27934 11.66981 28030 ft 462 kts 167°
2026-04-29 17:36 48.24826 11.68035 28368 ft 464 kts 167°
2026-04-29 17:36 48.21733 11.69096 28711 ft 466 kts 167°
2026-04-29 17:36 48.18627 11.70168 29024 ft 468 kts 167°
2026-04-29 17:36 48.15492 11.71251 29390 ft 468 kts 167°
2026-04-29 17:37 48.12321 11.72347 29862 ft 467 kts 167°
2026-04-29 17:37 48.09157 11.73439 30312 ft 466 kts 167°
2026-04-29 17:37 48.06017 11.74517 30701 ft 465 kts 168°
2026-04-29 17:37 48.02861 11.75596 31060 ft 465 kts 169°
2026-04-29 17:38 47.99770 11.76650 31419 ft 465 kts 169°
2026-04-29 17:38 47.96561 11.77740 31803 ft 465 kts 169°
2026-04-29 17:38 47.93405 11.78810 32172 ft 465 kts 169°
2026-04-29 17:38 47.90232 11.79651 32543 ft 462 kts 177°
2026-04-29 17:39 47.87033 11.79818 32907 ft 459 kts 185°
2026-04-29 17:39 47.83882 11.79625 33285 ft 459 kts 185°
2026-04-29 17:39 47.80698 11.79436 33620 ft 458 kts 187°
2026-04-29 17:39 47.77513 11.79255 34014 ft 458 kts 187°
2026-04-29 17:40 47.74331 11.79083 34358 ft 458 kts 187°
2026-04-29 17:40 47.71152 11.78911 34650 ft 457 kts 187°
2026-04-29 17:40 47.67967 11.78736 34931 ft 457 kts 186°
2026-04-29 17:40 47.64789 11.78560 35219 ft 457 kts 186°
2026-04-29 17:41 47.61606 11.78388 35467 ft 457 kts 186°
2026-04-29 17:41 47.58465 11.78217 35733 ft 457 kts 187°
2026-04-29 17:41 47.55292 11.78042 36024 ft 457 kts 187°
2026-04-29 17:41 47.52119 11.77867 36286 ft 456 kts 187°
2026-04-29 17:42 47.48945 11.77689 36518 ft 457 kts 187°
2026-04-29 17:42 47.45789 11.77510 36763 ft 456 kts 187°
2026-04-29 17:42 47.42621 11.77332 36999 ft 456 kts 186°
2026-04-29 17:42 47.39443 11.77154 37138 ft 457 kts 187°
2026-04-29 17:43 47.36261 11.76975 37193 ft 460 kts 187°
2026-04-29 17:43 47.29789 11.76616 37188 ft 468 kts 187°
2026-04-29 17:44 47.23318 11.76259 37183 ft 469 kts 187°
2026-04-29 17:44 47.16788 11.75900 37173 ft 470 kts 187°
2026-04-29 17:45 47.10256 11.75531 37161 ft 470 kts 187°
2026-04-29 17:45 47.03721 11.75172 37168 ft 471 kts 187°
2026-04-29 17:46 46.97164 11.74824 37150 ft 472 kts 187°
2026-04-29 17:46 46.90660 11.74475 37157 ft 470 kts 187°
2026-04-29 17:47 46.84118 11.74120 37158 ft 471 kts 187°
2026-04-29 17:47 46.77651 11.73767 37124 ft 470 kts 187°
2026-04-29 17:48 46.71127 11.73407 37147 ft 470 kts 188°
2026-04-29 17:48 46.64629 11.73053 37148 ft 469 kts 187°
2026-04-29 17:49 46.58096 11.73868 37157 ft 480 kts 170°
2026-04-29 17:49 46.51626 11.76264 37147 ft 480 kts 171°
2026-04-29 17:50 46.45148 11.78637 37158 ft 480 kts 171°
2026-04-29 17:50 46.38680 11.81003 37164 ft 479 kts 171°
2026-04-29 17:51 46.32216 11.83363 37163 ft 479 kts 171°
2026-04-29 17:51 46.25817 11.85685 37174 ft 477 kts 171°
2026-04-29 17:52 46.19380 11.88018 37176 ft 476 kts 171°
2026-04-29 17:52 46.12955 11.90347 37173 ft 476 kts 171°
2026-04-29 17:53 46.06542 11.92665 37165 ft 475 kts 171°
2026-04-29 17:53 46.00124 11.94972 37168 ft 475 kts 171°
2026-04-29 17:54 45.93751 11.97268 37133 ft 475 kts 171°
2026-04-29 17:54 45.87348 11.99566 37154 ft 474 kts 171°
2026-04-29 17:55 45.80962 12.01853 37152 ft 473 kts 171°
2026-04-29 17:55 45.74792 12.04056 37145 ft 472 kts 171°
2026-04-29 17:56 45.68467 12.06306 37154 ft 471 kts 171°
2026-04-29 17:56 45.62116 12.08561 37161 ft 470 kts 171°
2026-04-29 17:57 45.55781 12.10802 37157 ft 469 kts 171°
2026-04-29 17:57 45.49447 12.13043 37133 ft 469 kts 171°
2026-04-29 17:58 45.43161 12.15265 37152 ft 469 kts 171°
2026-04-29 17:58 45.36834 12.17494 37141 ft 469 kts 171°
2026-04-29 17:59 45.30497 12.19708 37113 ft 469 kts 171°
2026-04-29 17:59 45.24171 12.21929 37128 ft 469 kts 170°
2026-04-29 18:00 45.17837 12.24150 37128 ft 469 kts 170°
2026-04-29 18:00 45.11549 12.26346 37134 ft 469 kts 171°
2026-04-29 18:01 45.05214 12.28549 37127 ft 469 kts 170°
2026-04-29 18:01 44.98879 12.30746 37139 ft 469 kts 170°
2026-04-29 18:02 44.92543 12.32947 37136 ft 469 kts 171°
2026-04-29 18:02 44.86309 12.35101 37126 ft 468 kts 170°
2026-04-29 18:03 44.79980 12.37285 37136 ft 468 kts 170°
2026-04-29 18:03 44.73653 12.39460 37128 ft 468 kts 170°
2026-04-29 18:04 44.67328 12.41627 37110 ft 468 kts 170°
2026-04-29 18:04 44.61051 12.43781 37125 ft 467 kts 170°
2026-04-29 18:05 44.54734 12.45944 37131 ft 467 kts 170°
2026-04-29 18:05 44.48426 12.48095 37121 ft 467 kts 170°
2026-04-29 18:06 44.42117 12.50238 37125 ft 466 kts 170°
2026-04-29 18:06 44.35819 12.52374 37124 ft 466 kts 170°
2026-04-29 18:07 44.29558 12.54490 37095 ft 466 kts 170°
2026-04-29 18:07 44.23257 12.56618 37107 ft 466 kts 170°
2026-04-29 18:08 44.16963 12.58739 37086 ft 465 kts 170°
2026-04-29 18:08 44.10672 12.60856 37076 ft 465 kts 170°
2026-04-29 18:09 44.04429 12.62949 37076 ft 465 kts 170°
2026-04-29 18:09 43.98145 12.65067 37076 ft 465 kts 170°
2026-04-29 18:10 43.91857 12.67182 37078 ft 465 kts 170°
2026-04-29 18:10 43.85575 12.69269 37077 ft 464 kts 171°
2026-04-29 18:11 43.79336 12.71332 37087 ft 464 kts 170°
2026-04-29 18:11 43.73063 12.73417 37090 ft 464 kts 170°
2026-04-29 18:12 43.66787 12.75496 37080 ft 463 kts 170°
2026-04-29 18:12 43.60587 12.77559 37099 ft 463 kts 171°
2026-04-29 18:13 43.54362 12.79615 37089 ft 463 kts 171°
2026-04-29 18:13 43.48097 12.81679 37067 ft 463 kts 171°
2026-04-29 18:14 43.41831 12.83737 37076 ft 463 kts 171°
2026-04-29 18:14 43.35569 12.85783 37079 ft 463 kts 171°
2026-04-29 18:15 43.29304 12.87830 37052 ft 462 kts 170°
2026-04-29 18:15 43.23092 12.89854 37055 ft 462 kts 171°
2026-04-29 18:16 43.16854 12.92068 37065 ft 464 kts 167°
2026-04-29 18:16 43.10693 12.94767 37076 ft 465 kts 165°
2026-04-29 18:17 43.04554 12.97569 37076 ft 465 kts 165°
2026-04-29 18:17 42.98398 13.00263 37081 ft 464 kts 166°
2026-04-29 18:18 42.92281 13.02850 37086 ft 464 kts 166°
2026-04-29 18:18 42.86111 13.05444 37078 ft 464 kts 166°
2026-04-29 18:19 42.79970 13.08039 37094 ft 463 kts 166°
2026-04-29 18:19 42.73795 13.10660 37100 ft 463 kts 166°
2026-04-29 18:20 42.67686 13.13256 37096 ft 463 kts 166°
2026-04-29 18:20 42.61532 13.15862 37099 ft 463 kts 166°
2026-04-29 18:21 42.55386 13.18452 37105 ft 463 kts 166°
2026-04-29 18:21 42.49238 13.21035 37093 ft 462 kts 166°
2026-04-29 18:21 42.46163 13.22327 36826 ft 462 kts 167°
2026-04-29 18:22 42.43101 13.23615 36550 ft 461 kts 167°
2026-04-29 18:22 42.40080 13.24882 36307 ft 461 kts 167°
2026-04-29 18:22 42.37016 13.26163 36042 ft 461 kts 167°
2026-04-29 18:22 42.33956 13.27438 35790 ft 461 kts 167°
2026-04-29 18:23 42.30888 13.28715 35540 ft 461 kts 167°
2026-04-29 18:23 42.27817 13.29996 35016 ft 463 kts 167°
2026-04-29 18:23 42.24721 13.31286 34191 ft 468 kts 167°
2026-04-29 18:23 42.21593 13.32591 33212 ft 472 kts 166°
2026-04-29 18:24 42.18519 13.34225 32405 ft 478 kts 156°
2026-04-29 18:24 42.15716 13.36472 31949 ft 475 kts 147°
2026-04-29 18:24 42.13156 13.39289 31365 ft 475 kts 139°
2026-04-29 18:24 42.10758 13.42322 30800 ft 472 kts 139°
2026-04-29 18:25 42.08374 13.45344 30234 ft 469 kts 139°
2026-04-29 18:25 42.06007 13.48344 29606 ft 466 kts 139°
2026-04-29 18:25 42.03663 13.51311 29051 ft 460 kts 139°
2026-04-29 18:25 42.01342 13.54245 28487 ft 456 kts 139°
2026-04-29 18:26 41.99070 13.57114 27941 ft 452 kts 139°
2026-04-29 18:26 41.96786 13.59991 27395 ft 448 kts 139°
2026-04-29 18:26 41.94523 13.62835 26857 ft 444 kts 139°
2026-04-29 18:26 41.92273 13.65661 26323 ft 441 kts 139°
2026-04-29 18:27 41.90039 13.68468 25799 ft 438 kts 139°
2026-04-29 18:27 41.87824 13.71248 25290 ft 435 kts 139°
2026-04-29 18:27 41.85617 13.74018 24798 ft 433 kts 138°
2026-04-29 18:27 41.83426 13.76766 24327 ft 430 kts 138°
2026-04-29 18:28 41.81242 13.79500 23844 ft 428 kts 138°
2026-04-29 18:28 41.79072 13.82212 23349 ft 426 kts 138°
2026-04-29 18:28 41.76939 13.84870 22877 ft 422 kts 138°
2026-04-29 18:28 41.74795 13.87539 22415 ft 419 kts 138°
2026-04-29 18:29 41.72666 13.90191 21954 ft 417 kts 138°
2026-04-29 18:29 41.71261 13.91942 21640 ft 416 kts 138°
2026-04-29 18:29 41.68433 13.95463 20983 ft 414 kts 138°
2026-04-29 18:29 41.66329 13.98077 20480 ft 412 kts 139°
2026-04-29 18:30 41.64235 14.00672 19985 ft 409 kts 139°
2026-04-29 18:30 41.62160 14.03259 19487 ft 407 kts 137°
2026-04-29 18:30 41.60159 14.05930 18987 ft 406 kts 135°
2026-04-29 18:30 41.58262 14.08648 18484 ft 405 kts 133°
2026-04-29 18:31 41.56427 14.11385 17933 ft 403 kts 133°
2026-04-29 18:31 41.54579 14.14175 17423 ft 400 kts 133°
2026-04-29 18:31 41.52740 14.16936 16918 ft 396 kts 133°
2026-04-29 18:31 41.50903 14.19653 16407 ft 392 kts 134°
2026-04-29 18:32 41.49072 14.22324 15910 ft 389 kts 134°
2026-04-29 18:32 41.45434 14.27575 14907 ft 383 kts 134°
2026-04-29 18:32 41.43652 14.30135 14417 ft 380 kts 134°
2026-04-29 18:33 41.41809 14.32632 13929 ft 376 kts 140°
2026-04-29 18:33 41.39871 14.34878 13766 ft 362 kts 141°
2026-04-29 18:33 41.38083 14.36965 13644 ft 349 kts 140°
2026-04-29 18:33 41.36318 14.39033 13495 ft 327 kts 140°
2026-04-29 18:34 41.34667 14.40969 13361 ft 306 kts 141°
2026-04-29 18:34 41.33614 14.42139 13261 ft 293 kts 147°
2026-04-29 18:34 41.31355 14.44038 12997 ft 283 kts 151°
2026-04-29 18:34 41.29710 14.45395 12500 ft 281 kts 150°
2026-04-29 18:35 41.28058 14.46759 12046 ft 277 kts 150°
2026-04-29 18:35 41.26431 14.48104 11677 ft 274 kts 150°
2026-04-29 18:35 41.24818 14.49438 11324 ft 272 kts 150°
2026-04-29 18:35 41.23217 14.50776 10962 ft 271 kts 148°
2026-04-29 18:36 41.21720 14.52102 10616 ft 273 kts 147°
2026-04-29 18:36 41.20093 14.53589 10270 ft 274 kts 147°
2026-04-29 18:36 41.18534 14.55031 9959 ft 275 kts 147°
2026-04-29 18:36 41.16974 14.56468 9751 ft 271 kts 147°
2026-04-29 18:37 41.15444 14.57872 9470 ft 270 kts 147°
2026-04-29 18:37 41.13902 14.59280 9140 ft 267 kts 147°
2026-04-29 18:37 41.12355 14.60683 8479 ft 272 kts 147°
2026-04-29 18:37 41.10798 14.62094 8013 ft 269 kts 147°
2026-04-29 18:38 41.09271 14.63474 7636 ft 262 kts 150°
2026-04-29 18:38 41.07593 14.64345 6957 ft 262 kts 178°
2026-04-29 18:38 41.05868 14.64026 6631 ft 246 kts 206°
2026-04-29 18:38 41.04600 14.62939 6391 ft 230 kts 228°
2026-04-29 18:39 41.03678 14.61260 6089 ft 219 kts 240°
2026-04-29 18:39 41.02889 14.59557 5779 ft 217 kts 240°
2026-04-29 18:39 41.02100 14.57857 5454 ft 214 kts 240°
2026-04-29 18:39 41.01359 14.56269 5167 ft 206 kts 240°
2026-04-29 18:40 41.00615 14.54677 4891 ft 202 kts 240°
2026-04-29 18:40 40.99881 14.53107 4569 ft 199 kts 240°
2026-04-29 18:40 40.99156 14.51558 4273 ft 197 kts 240°
2026-04-29 18:40 40.98440 14.50026 3990 ft 194 kts 240°
2026-04-29 18:41 40.96367 14.45599 3174 ft 187 kts 239°
2026-04-29 18:41 40.95684 14.44144 2898 ft 185 kts 239°
2026-04-29 18:42 40.95010 14.42707 2630 ft 182 kts 240°
2026-04-29 18:42 40.94346 14.41292 2362 ft 179 kts 239°
2026-04-29 18:42 40.93707 14.39932 2104 ft 169 kts 239°
2026-04-29 18:42 40.93102 14.38643 1863 ft 162 kts 239°
2026-04-29 18:43 40.92522 14.37409 1671 ft 151 kts 238°
2026-04-29 18:43 40.91980 14.36256 1437 ft 145 kts 238°
2026-04-29 18:43 40.91452 14.35133 1241 ft 143 kts 236°
2026-04-29 18:43 40.90936 14.34036 1024 ft 143 kts 234°
2026-04-29 18:44 40.90411 14.32919 809 ft 143 kts 234°
2026-04-29 18:44 40.89888 14.31809 598 ft 141 kts 235°
2026-04-29 18:44 40.89368 14.30702 384 ft 142 kts 237°
2026-04-29 18:44 40.88862 14.29630 253 ft 121 kts 239°
2026-04-29 18:45 40.88508 14.28885 272 ft 71 kts 238°
2026-04-29 18:45 40.88324 14.28501 281 ft 35 kts 230°
2026-04-29 18:45 40.88169 14.28377 285 ft 17 kts 208°
2026-04-29 18:45 40.88075 14.28308 290 ft 9 kts 226°
2026-04-29 18:46 40.88062 14.28227 292 ft 9 kts 250°
2026-04-29 18:46 40.88027 14.28156 294 ft 9 kts 234°
2026-04-29 18:46 40.87972 14.28149 295 ft 10 kts 136°
2026-04-29 18:46 40.87953 14.28252 293 ft 14 kts 98°
2026-04-29 18:47 40.87941 14.28380 291 ft 11 kts 98°
2026-04-29 18:47 40.87901 14.28411 289 ft 9 kts 185°
2026-04-29 18:47 40.87866 14.28406 291 ft 0 kts 187°
2026-04-29 18:53 40.87868 14.28406 290 ft 0 kts 187°
2026-04-29 18:54 40.87874 14.28342 292 ft 0 kts 187°